This is the latest recevied weather packets stored in our database for station/object KD0RII. If no packets are shown the sender has not sent any weather packets the latest 10 day(s).
| Time | Temp. | Humidity | Pressure | Rain* | Wind** | Luminosity | Snow |
|---|---|---|---|---|---|---|---|
| 1778107064 | 16.67° C | 37% | 1018.9 hPa | 0 mm | - | 391 W/m² | - |
| 1778106760 | 17.78° C | 35% | 1018.7 hPa | 0 mm | - | 407 W/m² | - |
| 1778106457 | 17.22° C | 39% | 1018.8 hPa | 0 mm | - | 424 W/m² | - |
| 1778106152 | 17.22° C | 37% | 1018.9 hPa | 0 mm | - | 443 W/m² | - |
| 1778105851 | 17.22° C | 39% | 1018.8 hPa | 0 mm | - | 459 W/m² | - |
| 1778105548 | 17.78° C | 35% | 1018.7 hPa | 0 mm | - | 475 W/m² | - |
| 1778105245 | 17.22° C | 38% | 1018.9 hPa | 0 mm | - | 500 W/m² | - |
| 1778104940 | 17.22° C | 37% | 1018.8 hPa | 0 mm | - | 507 W/m² | - |
| 1778104637 | 17.78° C | 36% | 1018.9 hPa | 0 mm | - | 521 W/m² | - |
| 1778104333 | 16.67° C | 39% | 1018.9 hPa | 0 mm | - | 534 W/m² | - |
| 1778104029 | 16.67° C | 35% | 1018.9 hPa | 0 mm | - | 550 W/m² | - |
| 1778103727 | 17.22° C | 37% | 1018.9 hPa | 0 mm | - | 566 W/m² | - |
| 1778103425 | 17.78° C | 36% | 1019 hPa | 0 mm | - | 588 W/m² | - |
| 1778103122 | 17.22° C | 39% | 1019.2 hPa | 0 mm | - | 618 W/m² | - |
| 1778102819 | 17.22° C | 37% | 1019.2 hPa | 0 mm | - | 640 W/m² | - |
| 1778102514 | 16.67° C | 35% | 1019.2 hPa | 0 mm | - | 657 W/m² | - |
| 1778102210 | 17.22° C | 39% | 1019.3 hPa | 0 mm | - | 639 W/m² | - |
| 1778101907 | 16.67° C | 38% | 1019.2 hPa | 0 mm | - | 655 W/m² | - |
| 1778101603 | 17.78° C | 35% | 1019.4 hPa | 0 mm | - | 657 W/m² | - |
| 1778101300 | 16.67° C | 40% | 1019.5 hPa | 0 mm | - | 668 W/m² | - |
| 1778100998 | 16.67° C | 37% | 1019.3 hPa | 0 mm | - | 682 W/m² | - |
| 1778100692 | 16.67° C | 35% | 1019.6 hPa | 0 mm | - | 694 W/m² | - |
| 1778100390 | 16.67° C | 38% | 1019.6 hPa | 0 mm | - | 703 W/m² | - |
| 1778100087 | 17.22° C | 38% | 1019.6 hPa | 0 mm | - | 713 W/m² | - |
| 1778099785 | 17.22° C | 38% | 1019.6 hPa | 0 mm | - | 723 W/m² | - |
* Rain latest hour (hover to see other rain measurements)
** Current wind speed in m/s (hover to see current wind gust speed)